Home > Weather > Strausberg > Past weeks

Flag for Germany Weather for the Past 2 Weeks in Strausberg, Brandenburg, Germany

Now
45 °F

Clear.


Feels Like: 45 °F
Forecast: 46 / 57 °F
Wind: No wind

Location: Berlin-Schoenefeld

Current Time: May 3, 2016 at 2:24:35 AM

Latest Report: May 3, 2016 at 1:20 AM


Visibility: 10 mi

Pressure: 30.12 "Hg

Humidity: 81%

Dew Point: 39 °F

Location of StrausbergLocation

Historic Weather in Strausberg — Graph

°F

Strausberg Temperature Yesterday

Maximum temperature yesterday: 64 °F (at 2:20 PM)
Minimum temperature yesterday: 41 °F (at 5:20 AM)
Average temperature yesterday: 55 °F

High & Low Weather Summary for the Past Weeks

 TemperatureHumidityPressure
High64 °F (Apr 30, 1:20 PM)100% (Apr 25, 1:20 AM)30.36 "Hg (Apr 25, 1:20 AM)
Low30 °F (Apr 29, 5:20 AM)28% (Apr 30, 3:50 PM)29.47 "Hg (Apr 26, 4:20 AM)
Average46 °F65%29.98 "Hg
* Reported Apr 18 1:20 AM — May 3 1:20 AM, Strausberg, Weather by CustomWeather, © 2016

Note: Actual official high and low records may vary slightly from our data, if they occured in-between our weather recording intervals... More about our weather records

Advertising

Strausberg Weather History for the Previous 24 Hours

Scroll right to see more
 ConditionsComfort  
Time TempWeatherWind HumidityBarometerVisibility
1:20 AM
Tue, May 3
45 °FClear.No wind81%30.12 "Hg10 mi
12:50 AM46 °FClear.No wind82%30.12 "Hg10 mi
12:20 AM50 °FClear.1 mph71%30.12 "Hg10 mi
11:50 PM
Mon, May 2
48 °FClear.No wind71%30.12 "Hg10 mi
11:20 PM48 °FClear.2 mph71%30.12 "Hg10 mi
10:50 PM50 °FPassing clouds.5 mph71%30.12 "HgN/A
10:20 PM52 °FClear.2 mph67%30.12 "Hg10 mi
9:50 PM54 °FClear.3 mph58%30.12 "Hg10 mi
9:20 PM55 °FSunny.3 mph55%30.12 "Hg10 mi
8:50 PM59 °FSunny.3 mph48%30.12 "Hg10 mi
8:20 PM59 °FSunny.3 mph48%30.12 "Hg10 mi
7:50 PM61 °FSunny.5 mph45%30.12 "Hg10 mi
7:20 PM63 °FSunny.6 mph42%30.12 "Hg10 mi
6:50 PM63 °FPassing clouds.9 mph42%30.15 "HgN/A
6:20 PM64 °FSunny.8 mph40%30.15 "Hg10 mi
5:50 PM64 °FSunny.13 mph40%30.15 "Hg10 mi
5:20 PM64 °FPassing clouds.6 mph37%30.15 "HgN/A
4:50 PM64 °FPassing clouds.9 mph46%30.18 "HgN/A
4:20 PM63 °FPassing clouds.12 mph45%30.18 "HgN/A
3:50 PM64 °FPassing clouds.9 mph43%30.18 "HgN/A
3:20 PM64 °FPassing clouds.10 mph43%30.21 "HgN/A
2:50 PM64 °FPassing clouds.9 mph37%30.21 "HgN/A
2:20 PM64 °FPassing clouds.9 mph40%30.21 "HgN/A
1:50 PM63 °FScattered clouds.9 mph45%30.21 "HgN/A
1:20 PM63 °FScattered clouds.8 mph45%30.24 "HgN/A
12:50 PM61 °FPassing clouds.9 mph48%30.24 "HgN/A
12:20 PM63 °FPassing clouds.10 mph49%30.24 "HgN/A
11:20 AM59 °FPassing clouds.8 mph51%30.27 "HgN/A
10:50 AM59 °FPassing clouds.9 mph55%30.27 "HgN/A
10:20 AM57 °FPassing clouds.9 mph59%30.27 "HgN/A
9:50 AM57 °FPassing clouds.7 mph55%30.27 "HgN/A
9:20 AM55 °FSunny.8 mph59%30.27 "Hg10 mi
8:50 AM54 °FSunny.8 mph63%30.27 "Hg10 mi
8:20 AM52 °FSunny.8 mph67%30.27 "Hg10 mi
7:20 AM48 °FSunny.6 mph76%30.27 "Hg10 mi
6:50 AM45 °FSunny.5 mph81%30.27 "Hg10 mi
6:20 AM43 °FClear.6 mph87%30.27 "Hg10 mi
5:20 AM41 °FClear.5 mph81%30.27 "Hg10 mi
4:50 AM43 °FClear.7 mph76%30.27 "Hg10 mi
4:20 AM45 °FClear.6 mph71%30.27 "Hg10 mi
3:50 AM43 °FClear.7 mph71%30.27 "Hg10 mi
3:20 AM45 °FClear.8 mph71%30.27 "Hg10 mi
2:50 AM45 °FClear.7 mph66%30.27 "Hg10 mi
2:20 AM46 °FClear.8 mph62%30.27 "Hg10 mi
Weather by CustomWeather, © 2016

See weather overviewHow to use our weather pages